When you browse on this site, cookies collect data to enhance your experience and personalize the content and advertising you see.
Visit our Privacy Policy to learn more. By continuing to use the site, you agree to this use of cookies and data.
  • In United Kingdom
  • List of Countries
  • For 7 days
  • Water Temperature
  • Weather Map
  • Weather Widgets
  • user-avatar
    Login

    Hourly Weather Comarnic

    Today, 7 April, Tuesday

    Time Temperature Precipitation Wind Pressure Humidity
    00:00 +1°C° 0 mm 2 mps 694 mmHg 40%
    01:00 +1°C° 0 mm 2 mps 694 mmHg 40%
    02:00 -1°C° 0 mm 2 mps 694 mmHg 40%
    03:00 -1°C° 0 mm 2 mps 694 mmHg 40%
    04:00 -1°C° 0 mm 2 mps 694 mmHg 40%
    05:00 -1°C° 0 mm 2 mps 694 mmHg 40%
    06:00 +3°C° 0 mm 1 mps 694 mmHg 38%
    07:00 +5°C° 0 mm 1 mps 694 mmHg 35%
    08:00 +7°C° 0 mm 1 mps 695 mmHg 32%
    09:00 +8°C° 0 mm 1 mps 695 mmHg 30%
    10:00 +8°C° 0 mm 2 mps 695 mmHg 27%
    11:00 +10°C° 0 mm 2 mps 696 mmHg 24%
    12:00 +10°C° 0 mm 3 mps 695 mmHg 25%
    13:00 +11°C° 0 mm 3 mps 695 mmHg 26%
    14:00 +11°C° 0 mm 3 mps 695 mmHg 26%
    15:00 +11°C° 0 mm 3 mps 695 mmHg 28%
    16:00 +10°C° 0 mm 3 mps 694 mmHg 30%
    17:00 +10°C° 0 mm 3 mps 694 mmHg 32%
    18:00 +8°C° 0 mm 3 mps 693 mmHg 39%
    19:00 +6°C° 0 mm 2 mps 693 mmHg 45%
    20:00 +4°C° 0 mm 2 mps 693 mmHg 51%
    21:00 +3°C° 0 mm 2 mps 693 mmHg 53%
    22:00 +3°C° 0 mm 2 mps 693 mmHg 55%
    23:00 +2°C° 0 mm 2 mps 693 mmHg 57%

    Tomorrow, 8 April, Wednesday

    Time Temperature Precipitation Wind Pressure Humidity
    00:00 +2°C° 0 mm 2 mps 693 mmHg 57%
    01:00 +2°C° 0 mm 2 mps 693 mmHg 57%
    02:00 +2°C° 0 mm 2 mps 693 mmHg 57%
    03:00 +2°C° 0 mm 2 mps 692 mmHg 57%
    04:00 +1°C° 0 mm 2 mps 692 mmHg 56%
    05:00 +1°C° 0 mm 2 mps 692 mmHg 56%
    06:00 +4°C° 0 mm 1 mps 692 mmHg 51%
    07:00 +6°C° 0 mm 1 mps 693 mmHg 47%
    08:00 +7°C° 0 mm 0 mps 693 mmHg 42%
    09:00 +9°C° 0 mm 1 mps 693 mmHg 40%
    10:00 +11°C° 0 mm 1 mps 693 mmHg 37%
    11:00 +12°C° 0 mm 1 mps 693 mmHg 34%
    12:00 +13°C° 0 mm 2 mps 692 mmHg 33%
    13:00 +14°C° 0 mm 2 mps 692 mmHg 33%
    14:00 +14°C° 0 mm 2 mps 691 mmHg 32%
    15:00 +14°C° 0 mm 2 mps 691 mmHg 34%
    16:00 +13°C° 0 mm 2 mps 690 mmHg 35%
    17:00 +13°C° 0 mm 2 mps 690 mmHg 37%
    18:00 +11°C° 0 mm 1 mps 689 mmHg 44%
    19:00 +9°C° 0 mm 1 mps 689 mmHg 51%
    20:00 +7°C° 0 mm 1 mps 689 mmHg 58%
    21:00 +6°C° 0 mm 1 mps 689 mmHg 59%
    22:00 +6°C° 0 mm 1 mps 689 mmHg 60%
    23:00 +6°C° 0 mm 1 mps 689 mmHg 61%

    Day after tomorrow, 9 April, Thursday

    Time Temperature Precipitation Wind Pressure Humidity
    00:00 +5°C° 0 mm 1 mps 688 mmHg 62%
    01:00 +5°C° 0 mm 1 mps 688 mmHg 62%
    02:00 +4°C° 0 mm 1 mps 688 mmHg 63%
    03:00 +4°C° 0 mm 1 mps 688 mmHg 63%
    04:00 +4°C° 0 mm 1 mps 687 mmHg 62%
    05:00 +4°C° 0 mm 1 mps 687 mmHg 61%
    06:00 +6°C° 0 mm 1 mps 688 mmHg 56%
    07:00 +8°C° 0 mm 1 mps 688 mmHg 50%
    08:00 +9°C° 0 mm 0 mps 688 mmHg 45%
    09:00 +11°C° 0 mm 1 mps 688 mmHg 41%
    10:00 +13°C° 0 mm 1 mps 688 mmHg 36%
    11:00 +15°C° 0 mm 1 mps 688 mmHg 32%
    12:00 +15°C° 0 mm 2 mps 688 mmHg 32%
    13:00 +16°C° 0 mm 2 mps 688 mmHg 32%
    14:00 +16°C° 0 mm 2 mps 687 mmHg 31%
    15:00 +16°C° 0 mm 2 mps 687 mmHg 33%
    16:00 +15°C° 0 mm 2 mps 686 mmHg 34%
    17:00 +15°C° 0 mm 2 mps 686 mmHg 36%
    18:00 +13°C° 0 mm 2 mps 685 mmHg 42%
    19:00 +11°C° 0 mm 1 mps 685 mmHg 49%
    20:00 +9°C° 0 mm 1 mps 684 mmHg 55%
    21:00 +8°C° 0 mm 1 mps 684 mmHg 57%
    22:00 +8°C° 0 mm 1 mps 684 mmHg 59%
    23:00 +6°C° 0 mm 2 mps 684 mmHg 61%

    10 April, Friday

    Time Temperature Precipitation Wind Pressure Humidity
    00:00 +6°C° 0 mm 2 mps 684 mmHg 63%
    01:00 +6°C° 0 mm 2 mps 684 mmHg 65%
    02:00 +6°C° 0 mm 2 mps 683 mmHg 68%
    03:00 +5°C° 0 mm 2 mps 683 mmHg 67%
    04:00 +5°C° 0 mm 2 mps 683 mmHg 67%
    05:00 +5°C° 0 mm 2 mps 683 mmHg 67%
    06:00 +7°C° 0 mm 2 mps 684 mmHg 62%
    07:00 +8°C° 0 mm 3 mps 684 mmHg 58%
    08:00 +10°C° 0 mm 3 mps 684 mmHg 53%
    09:00 +11°C° 0 mm 3 mps 684 mmHg 48%
    10:00 +14°C° 0 mm 2 mps 684 mmHg 43%
    11:00 +15°C° 0 mm 2 mps 685 mmHg 38%
    12:00 +16°C° 0 mm 3 mps 685 mmHg 37%
    13:00 +16°C° 0 mm 3 mps 684 mmHg 36%
    14:00 +17°C° 0 mm 3 mps 684 mmHg 35%
    15:00 +16°C° 0 mm 3 mps 684 mmHg 39%
    16:00 +14°C° 0 mm 3 mps 684 mmHg 42%
    17:00 +14°C° 0 mm 4 mps 684 mmHg 45%
    18:00 +12°C° 0 mm 3 mps 684 mmHg 53%
    19:00 +10°C° 0 mm 3 mps 684 mmHg 61%
    20:00 +8°C° 0 mm 2 mps 684 mmHg 70%
    21:00 +8°C° 0 mm 2 mps 684 mmHg 72%
    22:00 +7°C° 0 mm 2 mps 685 mmHg 75%
    23:00 +6°C° 0 mm 2 mps 685 mmHg 77%

    11 April, Saturday

    Time Temperature Precipitation Wind Pressure Humidity
    00:00 +7°C° 0 mm 1 mps 685 mmHg 79%
    01:00 +6°C° 0 mm 1 mps 685 mmHg 80%
    02:00 +5°C° 0 mm 1 mps 685 mmHg 81%
    03:00 +5°C° 0 mm 1 mps 685 mmHg 81%
    04:00 +4°C° 0 mm 1 mps 685 mmHg 81%
    05:00 +4°C° 0 mm 1 mps 686 mmHg 80%
    06:00 +5°C° 0 mm 1 mps 686 mmHg 75%
    07:00 +6°C° 0 mm 1 mps 686 mmHg 69%
    08:00 +8°C° 0 mm 1 mps 687 mmHg 63%
    09:00 +8°C° 0 mm 2 mps 687 mmHg 58%
    10:00 +9°C° 0 mm 2 mps 687 mmHg 53%
    11:00 +12°C° 0 mm 2 mps 687 mmHg 47%
    12:00 +11°C° 0 mm 3 mps 687 mmHg 46%
    13:00 +12°C° 0 mm 3 mps 687 mmHg 45%
    14:00 +12°C° 0 mm 3 mps 687 mmHg 44%
    15:00 +12°C° 0 mm 3 mps 686 mmHg 45%
    16:00 +12°C° 0 mm 3 mps 686 mmHg 46%
    17:00 +12°C° 0 mm 3 mps 686 mmHg 47%
    18:00 +10°C° 0 mm 2 mps 686 mmHg 55%
    19:00 +9°C° 0 mm 1 mps 686 mmHg 62%
    20:00 +8°C° 0 mm 1 mps 685 mmHg 70%
    21:00 +7°C° 0 mm 1 mps 685 mmHg 73%
    22:00 +7°C° 0 mm 1 mps 685 mmHg 76%
    23:00 +6°C° 0 mm 1 mps 685 mmHg 79%

    12 April, Sunday

    Time Temperature Precipitation Wind Pressure Humidity
    00:00 +6°C° 0 mm 1 mps 685 mmHg 79%
    01:00 +6°C° 0 mm 1 mps 685 mmHg 79%
    02:00 +6°C° 0 mm 1 mps 686 mmHg 79%
    03:00 +5°C° 0 mm 0 mps 685 mmHg 79%
    04:00 +5°C° 0 mm 0 mps 685 mmHg 79%
    05:00 +5°C° 0 mm 0 mps 685 mmHg 79%
    06:00 +6°C° 0 mm 0 mps 685 mmHg 77%
    07:00 +8°C° 0 mm 1 mps 686 mmHg 74%
    08:00 +9°C° 0 mm 1 mps 686 mmHg 72%
    09:00 +9°C° 0.1 mm 1 mps 686 mmHg 70%
    10:00 +10°C° 0.1 mm 1 mps 686 mmHg 68%
    11:00 +9°C° 0.1 mm 2 mps 685 mmHg 66%
    12:00 +10°C° 0.1 mm 2 mps 685 mmHg 65%
    13:00 +10°C° 0.1 mm 2 mps 685 mmHg 65%
    14:00 +10°C° 0.1 mm 2 mps 685 mmHg 64%
    15:00 +10°C° 0 mm 2 mps 684 mmHg 64%
    16:00 +10°C° 0 mm 2 mps 684 mmHg 64%
    17:00 +11°C° 0 mm 1 mps 684 mmHg 63%
    18:00 +10°C° 0 mm 1 mps 683 mmHg 67%
    19:00 +9°C° 0 mm 1 mps 683 mmHg 71%
    20:00 +8°C° 0 mm 1 mps 683 mmHg 74%
    21:00 +8°C° 0 mm 1 mps 683 mmHg 74%
    22:00 +8°C° 0 mm 1 mps 683 mmHg 73%
    23:00 +6°C° 0 mm 2 mps 683 mmHg 73%
    Show more